This is the latest recevied weather packets stored in our database for station/object N8QF. If no packets are shown the sender has not sent any weather packets the latest 10 day(s).
| Time | Temp. | Humidity | Pressure | Rain* | Wind** | Luminosity | Snow |
|---|---|---|---|---|---|---|---|
| 1777919362 | 20.56° C | 57% | 1007.6 hPa | 0 mm | - | - | - |
| 1777919061 | 20° C | 56% | 1007.5 hPa | 0 mm | - | - | - |
| 1777918461 | 21.67° C | 48% | 1007.4 hPa | 0 mm | - | - | - |
| 1777918161 | 22.22° C | 50% | 1007.2 hPa | 0 mm | - | - | - |
| 1777917861 | 21.67° C | 52% | 1007.1 hPa | 0 mm | - | - | - |
| 1777917560 | 21.11° C | 54% | 1007.1 hPa | 0 mm | - | - | - |
| 1777917260 | 21.11° C | 54% | 1007.1 hPa | 0 mm | - | - | - |
| 1777916959 | 20.56° C | 52% | 1007 hPa | 0 mm | - | - | - |
| 1777916658 | 20.56° C | 53% | 1007.2 hPa | 0 mm | - | - | - |
| 1777916358 | 20.56° C | 54% | 1007.3 hPa | 0 mm | - | - | - |
| 1777915757 | 20° C | 53% | 1007.3 hPa | 0 mm | - | - | - |
| 1777915454 | 20° C | 54% | 1007.4 hPa | 0 mm | - | - | - |
| 1777915154 | 20° C | 55% | 1007.3 hPa | 0 mm | - | - | - |
| 1777914853 | 20° C | 54% | 1007.5 hPa | 0 mm | - | - | - |
| 1777914553 | 20° C | 57% | 1007.5 hPa | 0 mm | - | - | - |
| 1777914253 | 19.44° C | 57% | 1007.5 hPa | 0 mm | - | - | - |
| 1777913953 | 19.44° C | 58% | 1007.5 hPa | 0 mm | - | - | - |
| 1777913653 | 18.89° C | 57% | 1007.6 hPa | 0 mm | - | - | - |
| 1777913352 | 18.89° C | 59% | 1007.6 hPa | 0 mm | - | - | - |
| 1777913052 | 18.89° C | 59% | 1007.7 hPa | 0 mm | - | - | - |
| 1777912751 | 18.89° C | 59% | 1007.7 hPa | 0 mm | - | - | - |
| 1777912451 | 18.33° C | 58% | 1007.9 hPa | 0 mm | - | - | - |
| 1777912151 | 18.33° C | 56% | 1008 hPa | 0 mm | - | - | - |
| 1777911851 | 18.89° C | 58% | 1008 hPa | 0 mm | - | - | - |
| 1777911551 | 18.33° C | 57% | 1007.9 hPa | 0 mm | - | - | - |
* Rain since midnight (hover to see other rain measurements)
** Current wind speed in m/s (hover to see current wind gust speed)